Regional Weather Roundup
Issued by NWS State College, PA

Home | Current Version | Previous Version | Text Only | Print | Product List | Glossary Off
Versions: 1 2 3 4 5 6 7 8 9 10 11 12 13 14 15 16 17 18 19 20 21 22 23 24 25 26 27 28 29 30 31 32 33 34 35 36 37 38 39 40 41 42 43 44 45 46 47 48 49 50

000
ASUS41 KCTP 260603
RWRCTP

REGIONAL WEATHER ROUNDUP
NATIONAL WEATHER SERVICE STATE COLLEGE PA
200 AM EDT SAT JUL 26 2014

Note: "fair" indicates few or no clouds below 12,000 feet with no
significant weather and/or obstructions to visibility.

* = STATION THAT DOES NOT REPORT PRECIPITATION /E.G. RAIN...SNOW...ETC/
    THUNDER OR FOG.

PAZ002>004-007>009-013>016-020>023-029>032-260700-
WESTERN PENNSYLVANIA

CITY           SKY/WX    TMP DP  RH WIND       PRES   REMARKS
ERIE           CLOUDY    65  55  70 S7        29.99S
MEADVILLE      LGT RAIN  61  57  87 S5        30.03R
FRANKLIN*      CLOUDY    59  54  82 W6        30.04S
NEW CASTLE     LGT RAIN  61  60  96 CALM      30.04S
BEAVER COUNTY  NOT AVBL
BUTLER*        CLOUDY    61  55  82 CALM      30.05S
PITTSBURGH INT LGT RAIN  65  61  87 CALM      30.03S
PITTSBURGH     CLOUDY    69  54  58 CALM      30.02S
INDIANA*       CLOUDY    61  57  88 CALM      30.07S
LATROBE        CLEAR     63  63 100 CALM      30.04S
WASHINGTON CO* CLOUDY    61  57  88 CALM      30.03F
$$

PAZ004>006-010>012-017>019-024>028-033>037-041-042-045-046-049>053-260700-
CENTRAL PENNSYLVANIA

CITY           SKY/WX    TMP DP  RH WIND       PRES   REMARKS
BRADFORD       MOCLDY    52  50  93 CALM      30.04S
DUBOIS         MOCLDY    60  54  80 CALM      30.03F
CLEARFIELD     MOCLDY    55  52  89 N3        30.03F
JOHNSTOWN      MOCLDY    62  52  69 SW6       30.06F
ALTOONA          N/A    N/A N/A N/A MISG      30.03F
STATE COLLEGE  PTCLDY    61  55  80 CALM      30.02F
WILLIAMSPORT   PTCLDY    60  54  80 N5        30.00F
SELINSGROVE    PTCLDY    57  55  93 CALM      30.02S
FT INDIANTOWN  PTCLDY    58  57  95 CALM      30.02F
CAPITAL CITY   MOCLDY    62  56  80 SW3       30.01S
HARRISBURG     CLOUDY    68  56  65 E3        30.00F
YORK           CLOUDY    62  57  83 CALM      30.01F
$$

PAZ038>040-043-044-047-048-054-055-060>062-067>071-260700-
EASTERN PENNSYLVANIA

CITY           SKY/WX    TMP DP  RH WIND       PRES   REMARKS
SCRANTON       MOCLDY    61  52  72 CALM      30.02S
MOUNT POCONO   MOCLDY    55  52  89 CALM      30.05S
ALLENTOWN      MOCLDY    61  56  83 CALM      30.01S
QUAKERTOWN*    MOCLDY    59  57  94 CALM      30.03S
READING        MOCLDY    63  58  83 CALM      30.01S
LANCASTER      MOCLDY    61  57  87 CALM      30.02S
COATESVILLE    MOCLDY    66  55  68 W3        30.03F
POTTSTOWN      MOCLDY    59  55  87 CALM      30.03S
BLUE BELL      MOCLDY    61  57  88 CALM      30.01S
DOYLESTOWN     MOCLDY    61  57  87 CALM      30.01S
WILLOW GROVE   NOT AVBL
NORTH PHILA    MOCLDY    70  56  61 VRB3      30.03S
PHILADELPHIA   MOCLDY    69  59  70 S7        30.02S
$$


USA.gov is the U.S. government's official web portal to all federal, state and local government web resources and services.